GW7217 Weather Reports


time (UTC)temp
F
wind
direction
speed
knots
gust
knots
rain 1hr
in
rain 24hr
in
rain mn
in
humidity
%
barometer
mb
20260504030007 47 149 0.9 0.9 0.00 0.00 0.00 50 1014.7
20260504025406 47 137 0.9 0.9 0.00 0.00 0.00 50 1014.6
20260504024805 47 113 0.9 1.7 0.00 0.00 0.00 50 1014.6
20260504024205 47 110 0.9 1.7 0.00 0.00 0.00 49 1014.6
20260504023006 48 120 0.9 0.9 0.00 0.00 0.00 49 1014.7
20260504022405 48 138 0.9 0.9 0.00 0.00 0.00 50 1014.8
20260504021805 48 108 0.9 1.7 0.00 0.00 0.00 48 1014.8
20260504021205 48 120 0.9 1.7 0.00 0.00 0.00 48 1014.7
20260504020606 49 117 0.9 1.7 0.00 0.00 0.00 48 1014.6
20260504020006 49 113 0.9 1.7 0.00 0.00 0.00 48 1014.6
20260504015405 48 146 0.0 0.9 0.00 0.00 0.00 48 1014.6
20260504014806 49 119 0.9 1.7 0.00 0.00 0.00 47 1014.7
20260504013605 49 103 0.9 1.7 0.00 0.00 0.00 47 1014.6
20260504013007 49 102 0.9 1.7 0.00 0.00 0.00 47 1014.5
20260504012405 49 112 0.9 1.7 0.00 0.00 0.00 47 1014.4
20260504011806 49 116 0.9 1.7 0.00 0.00 0.00 47 1014.4
20260504011205 50 108 0.9 1.7 0.00 0.00 0.00 46 1014.4
20260504010605 50 124 0.9 0.9 0.00 0.00 0.00 45 1014.4
20260504005406 51 122 0.9 1.7 0.00 0.00 0.00 43 1014.4
20260504004805 51 132 0.9 1.7 0.00 0.00 0.00 43 1014.4
20260504004205 51 112 0.9 1.7 0.00 0.00 0.00 43 1014.3
20260504003606 51 112 0.9 1.7 0.00 0.00 0.00 43 1014.3
20260504002406 52 133 0.9 0.9 0.00 0.00 0.00 42 1014.3
20260504001805 52 141 0.9 1.7 0.00 0.00 0.00 42 1014.3
20260504000606 53 144 0.9 0.9 0.00 0.00 0.00 41 1014.3
20260504000006 53 158 0.9 1.7 0.00 0.00 0.00 40 1014.3
20260503235405 54 157 0.9 1.7 0.00 0.00 0.00 40 1014.3
20260503234805 54 142 0.9 1.7 0.00 0.00 0.00 39 1014.3
20260503234205 54 169 0.9 1.7 0.00 0.00 0.00 40 1014.3
20260503233605 54 168 0.9 1.7 0.00 0.00 0.00 39 1014.3
20260503233006 55 160 1.7 2.6 0.00 0.00 0.00 38 1014.3
20260503231806 55 167 1.7 2.6 0.00 0.00 0.00 37 1014.3
20260503231205 56 170 1.7 3.5 0.00 0.00 0.00 37 1014.3
20260503230605 56 169 1.7 2.6 0.00 0.00 0.00 36 1014.3
20260503230006 57 176 0.9 1.7 0.00 0.00 0.00 36 1014.4
20260503224805 56 178 0.9 2.6 0.00 0.00 0.00 37 1014.4
20260503224206 57 158 1.7 3.5 0.00 0.00 0.00 36 1014.5
20260503223605 57 169 1.7 3.5 0.00 0.00 0.00 35 1014.4
20260503223006 61 190 0.9 2.6 0.00 0.00 0.00 32 1014.5
20260503222405 60 172 1.7 4.3 0.00 0.00 0.00 33 1014.6
20260503221805 60 146 1.7 3.5 0.00 0.00 0.00 32 1014.4
20260503221206 62 146 1.7 2.6 0.00 0.00 0.00 31 1014.3
20260503220605 62 167 0.9 1.7 0.00 0.00 0.00 33 1014.4
20260503220006 61 173 1.7 3.5 0.00 0.00 0.00 32 1014.4
20260503215405 63 172 1.7 3.5 0.00 0.00 0.00 31 1014.4
20260503214805 63 153 0.9 2.6 0.00 0.00 0.00 32 1014.3
20260503213606 64 155 1.7 2.6 0.00 0.00 0.00 31 1014.3
20260503213006 63 148 1.7 3.5 0.00 0.00 0.00 30 1014.3
20260503212406 63 158 1.7 2.6 0.00 0.00 0.00 31 1014.4
20260503211805 58 154 1.7 2.6 0.00 0.00 0.00 35 1014.4
20260503211205 61 169 1.7 3.5 0.00 0.00 0.00 32 1014.4
20260503205405 61 164 1.7 2.6 0.00 0.00 0.00 33 1014.7
20260503204805 59 168 1.7 3.5 0.00 0.00 0.00 33 1014.7
20260503203605 62 187 1.7 3.5 0.00 0.00 0.00 33 1014.8
20260503203006 62 196 2.6 4.3 0.00 0.00 0.00 30 1014.8
20260503202406 64 188 1.7 4.3 0.00 0.00 0.00 30 1014.9
20260503201805 65 172 1.7 3.5 0.00 0.00 0.00 31 1014.8
20260503201205 64 198 1.7 3.5 0.00 0.00 0.00 31 1015.0
20260503200605 64 185 1.7 3.5 0.00 0.00 0.00 31 1015.1
20260503200006 63 171 1.7 2.6 0.00 0.00 0.00 30 1015.2
20260503194806 62 234 2.6 5.2 0.00 0.00 0.00 29 1015.3
20260503193605 58 221 2.6 4.3 0.00 0.00 0.00 35 1015.5
20260503193005 61 152 1.7 4.3 0.00 0.00 0.00 34 1015.5
20260503191805 58 207 2.6 5.2 0.00 0.00 0.00 34 1015.8
20260503191206 59 178 2.6 4.3 0.00 0.00 0.00 34 1015.8
20260503190606 59 178 1.7 3.5 0.00 0.00 0.00 34 1015.8
20260503190006 59 197 1.7 4.3 0.00 0.00 0.00 35 1015.9
20260503184805 59 178 1.7 2.6 0.00 0.00 0.00 33 1016.0
20260503184206 61 192 0.9 2.6 0.00 0.00 0.00 36 1016.1
20260503183605 58 213 1.7 4.3 0.00 0.00 0.00 33 1016.2
20260503183006 58 170 1.7 2.6 0.00 0.00 0.00 32 1016.2
20260503182405 60 194 1.7 4.3 0.00 0.00 0.00 33 1016.3
20260503181805 60 200 1.7 4.3 0.00 0.00 0.00 34 1016.3
20260503181206 59 252 1.7 3.5 0.00 0.00 0.00 33 1016.3
20260503180605 59 188 2.6 3.5 0.00 0.00 0.00 33 1016.5
20260503180006 60 158 1.7 2.6 0.00 0.00 0.00 34 1016.6
20260503175405 59 188 1.7 4.3 0.00 0.00 0.00 34 1016.6
20260503174806 57 186 1.7 3.5 0.00 0.00 0.00 36 1016.7
20260503174205 58 205 1.7 3.5 0.00 0.00 0.00 34 1016.7
20260503173606 59 174 0.9 2.6 0.00 0.00 0.00 33 1016.6
20260503172405 56 192 0.9 2.6 0.00 0.00 0.00 35 1017.0
20260503171806 57 192 1.7 2.6 0.00 0.00 0.00 36 1016.9
20260503171206 57 186 1.7 4.3 0.00 0.00 0.00 36 1017.0
20260503170605 58 180 1.7 2.6 0.00 0.00 0.00 34 1017.0
20260503150605 54 185 1.7 3.5 0.00 0.00 0.00 38 1018.0
20260503130606 48 178 0.9 1.7 0.00 0.00 0.00 55 1018.3
20260503110605 36 165 0.0 0.9 0.00 0.00 0.00 80 1017.7
20260503081206 33 154 0.0 0.9 0.00 0.00 0.00 82 1016.5
20260503080605 34 140 0.0 0.9 0.00 0.00 0.00 81 1016.6
20260503072405 35 193 0.0 0.9 0.00 0.00 0.00 76 1016.3
20260503071806 35 182 0.9 0.9 0.00 0.00 0.00 75 1016.3
20260503071205 35 224 0.0 0.9 0.00 0.00 0.00 76 1016.2
20260503054205 34 171 0.0 0.9 0.00 0.00 0.00 77 1016.4
20260503053605 34 182 0.0 0.9 0.00 0.00 0.00 76 1016.5
20260503053006 34 186 0.0 0.9 0.00 0.00 0.00 76 1016.5
20260503052405 34 174 0.0 0.9 0.00 0.00 0.00 77 1016.5
20260503051805 34 192 0.0 0.9 0.00 0.00 0.00 76 1016.5
20260503051205 35 206 0.0 0.9 0.00 0.00 0.00 74 1016.6
20260503050606 35 222 0.9 0.9 0.00 0.00 0.00 73 1016.6
20260503050006 36 208 0.9 0.9 0.00 0.00 0.00 72 1016.6
20260503045405 36 190 0.9 0.9 0.00 0.00 0.00 72 1016.7
20260503044805 36 206 0.9 0.9 0.00 0.00 0.00 71 1016.6
20260503043606 36 182 0.0 0.9 0.00 0.00 0.00 73 1016.7
20260503042406 37 172 0.9 0.9 0.00 0.00 0.00 73 1016.6
20260503041805 37 168 0.9 0.9 0.00 0.00 0.00 73 1016.6
20260503041205 37 174 0.0 0.9 0.00 0.00 0.00 72 1016.6
20260503040605 37 172 0.0 0.9 0.00 0.00 0.00 72 1016.6
20260503040006 37 169 0.0 0.9 0.00 0.00 0.00 72 1016.6
20260503035406 38 191 0.0 0.9 0.00 0.00 0.00 71 1016.7
20260503034206 38 170 0.0 0.9 0.00 0.00 0.00 72 1016.6
20260503033006 38 203 0.0 0.9 0.00 0.00 0.00 72 1016.7
20260503032406 38 220 0.0 0.9 0.00 0.00 0.00 71 1016.8
20260503031805 38 219 0.0 0.9 0.00 0.00 0.00 71 1016.8
20260503031205 38 217 0.9 1.7 0.00 0.00 0.00 70 1016.8
20260503030605 38 212 0.0 0.9 0.00 0.00 0.00 70 1016.8